Temperature
17 17 17 17 17 17 17 17 17 17 17 17 17 17 17 17 17 17 17 18 18 18 18 17 17 17 17 17 17 17 17 17 18 18 18 18 17 17 17 17 17 17 17
16 16 16 16 16 17 17 17 17 16 16 16 16 16 16 17 17 17 17 17 17 17 17 17 17 17 17 17 17 17 17 17 17 17 17 17 17 17 17 17 17 17 17
16 16 16 16 16 16 16 16 16 16 16 16 16 16 16 16 16 16 17 17 17 17 17 17 17 17 17 17 17 17 17 17 17 17 17 17 17 17 17 17 17 17 17
15 15 15 15 15 15 15 15 15 15 15 15 15 16 16 16 16 16 16 16 17 17 17 17 17 17 17 17 17 17 17 17 17 17 17 17 17 17 17 17 17 17 17
14 14 14 14 14 14 14 14 15 15 15 15 15 15 15 15 16 16 16 16 16 16 17 17 17 17 17 17 17 17 17 17 17 17 17 17 17 17 17 17 17 17 17
14 14 13 13 13 14 14 14 14 14 14 14 14 15 15 15 15 15 16 16 16 16 16 17 17 17 17 17 17 17 17 17 17 17 17 17 17 17 17 17 17 17 17
13 13 13 13 13 13 13 13 13 13 13 13 14 14 15 15 15 15 15 15 15 15 16 16 16 16 17 17 17 17 17 17 17 17 17 17 17 17 17 17 17 17 17
12 12 12 12 13 13 13 13 13 13 13 13 13 13 14 15 15 15 15 15 15 15 15 15 16 16 16 17 17 17 17 17 16 16 16 17 17 17 17 17 17 16 16
12 12 12 12 12 12 12 12 12 12 12 12 12 12 12 13 13 14 14 14 14 14 15 15 15 16 16 16 17 17 17 16 16 16 16 16 16 17 17 17 17 16 16
11 11 11 11 12 12 12 12 12 12 12 12 12 12 12 12 12 13 14 14 14 14 14 15 15 15 16 16 17 17 17 17 16 16 16 16 16 16 17 17 16 16 16
11 11 11 11 11 11 11 11 12 11 11 11 11 11 12 12 12 12 12 13 14 14 14 15 15 15 16 16 16 17 17 17 17 16 16 16 16 16 16 16 16 16 16
11 11 10 10 10 11 11 11 11 11 11 11 11 11 11 11 11 11 11 12 13 14 14 14 15 15 15 16 16 16 17 17 17 17 16 16 16 16 16 16 16 16 16
10 10 10 10 10 10 10 10 10 11 11 11 11 11 11 11 11 11 11 11 12 13 14 14 15 15 15 16 16 16 16 17 17 17 16 16 16 16 16 16 16 16 16
10 10 10 10 9 9 9 10 10 10 10 10 10 10 10 11 11 10 11 11 11 12 13 14 14 15 15 15 16 16 16 16 16 16 16 16 16 16 16 16 16 16 16
10 9 9 9 9 9 9 9 9 9 9 9 10 10 10 10 10 10 10 10 10 10 12 13 14 14 15 15 15 16 16 16 16 16 16 16 16 16 16 16 16 16 16
9 9 9 9 9 9 9 9 9 9 9 9 9 9 10 10 10 10 10 10 10 10 11 12 13 13 14 14 15 16 16 16 16 16 16 16 16 16 16 16 16 16 16
9 9 9 9 9 9 8 8 8 8 8 8 9 9 9 9 9 10 10 10 10 10 10 11 12 13 13 14 15 15 16 16 16 16 16 16 16 16 16 16 16 16 16
9 9 8 8 8 8 8 8 8 8 8 8 8 8 8 9 9 9 9 10 10 10 10 10 11 12 13 14 14 15 15 15 15 16 16 16 16 16 16 16 16 16 16
9 9 8 8 8 8 8 8 8 8 8 8 8 8 8 8 8 9 9 9 10 10 10 10 11 11 12 13 13 14 15 15 15 15 15 15 15 15 15 15 15 15 15
8 8 8 8 8 8 8 8 8 8 8 8 8 8 8 8 8 8 8 9 9 9 10 10 10 11 11 12 12 13 14 14 15 15 15 15 15 15 15 15 15 15 15
8 8 8 8 8 8 8 8 8 8 8 8 8 8 8 8 8 8 8 8 9 9 9 10 10 10 11 11 12 12 13 13 13 14 14 15 14 14 15 15 15 15 15
8 8 8 8 8 8 8 8 8 8 8 8 8 8 8 7 7 7 8 8 8 9 9 9 10 10 10 11 12 12 12 12 13 13 13 13 13 14 14 14 14 15 15
8 8 8 8 8 8 8 8 8 7 7 8 8 8 8 7 7 7 7 8 8 8 9 9 9 10 10 11 11 12 12 12 13 13 13 12 12 13 13 13 14 14 14
8 8 8 8 8 8 8 8 8 7 7 7 7 7 7 7 7 7 7 7 8 8 8 9 9 10 10 10 10 11 11 12 12 12 12 12 12 12 12 12 13 13 14
8 8 8 8 8 8 8 8 7 7 7 7 7 7 7 7 7 7 6 7 7 8 8 8 9 9 10 10 10 10 11 11 11 12 12 12 11 11 11 11 12 12 13
8 8 8 8 8 8 8 7 7 7 7 7 7 7 7 6 7 6 6 6 7 7 8 8 9 9 9 9 10 10 10 11 11 11 11 11 11 11 11 11 11 11 12
Wind_Speed
1 1 1 2 3 3 4 4 5 6 6 8 10 11 11 12 14 15 14 18 20 20 21 22 25 26 27 27 26 25 25 24 23 22 21 21 20 20 19 19 18 18 17
0 1 1 1 2 3 3 4 4 5 5 5 7 9 10 12 14 16 16 17 20 21 21 23 24 27 28 28 28 27 26 26 25 24 23 22 22 21 21 20 19 19 19
1 1 1 1 2 3 4 4 4 4 4 5 6 8 8 11 13 15 17 17 17 20 21 22 24 26 28 29 29 29 28 28 27 26 25 24 24 23 22 22 21 20 20
1 1 1 1 2 3 2 3 3 3 4 4 5 6 7 8 11 13 15 16 16 16 18 21 23 25 27 29 29 29 29 29 28 28 27 27 26 25 24 23 22 22 21
3 1 1 2 3 2 2 3 2 2 4 5 6 6 7 8 10 11 12 14 16 16 16 17 21 24 26 28 29 29 29 29 29 29 29 28 28 27 26 25 24 23 22
5 3 2 3 3 2 2 2 3 2 3 4 6 7 7 8 8 10 12 11 14 17 17 16 16 18 24 27 28 29 28 29 30 30 30 29 29 28 28 27 26 25 24
6 4 3 3 2 2 3 3 2 3 2 2 3 5 5 7 8 8 8 9 11 13 16 16 15 15 16 23 27 28 28 28 28 29 31 31 30 30 29 29 28 27 26
7 5 3 4 3 3 4 3 1 2 2 1 2 3 4 4 3 6 7 8 9 8 11 14 15 15 16 16 20 26 27 28 28 29 30 31 31 31 30 30 29 28 28
7 6 5 4 4 3 3 4 2 2 2 2 1 2 3 3 5 3 4 5 6 7 8 8 13 16 18 17 17 22 27 28 30 31 31 31 32 31 31 31 30 30 29
6 6 5 4 3 2 3 4 3 2 2 2 2 2 3 4 4 5 3 3 4 7 8 9 10 12 17 16 17 20 24 28 30 32 32 32 32 32 32 31 31 30 29
5 5 5 3 3 2 3 4 3 3 2 3 2 2 2 3 4 4 5 4 4 4 6 7 8 8 13 16 16 19 23 26 28 30 31 31 32 32 32 32 31 30 30
5 5 5 3 3 3 3 3 3 4 4 4 3 3 2 2 2 3 4 6 6 5 5 5 6 7 9 13 18 21 24 25 26 27 29 30 31 32 32 32 31 30 29
4 6 5 4 4 4 4 4 3 4 4 4 5 4 4 4 3 3 4 5 5 4 4 3 4 4 7 11 14 20 22 24 25 26 27 28 30 31 31 31 31 30 29
6 7 6 6 5 5 5 4 3 4 4 4 5 5 4 5 4 4 3 3 5 4 3 4 2 2 3 6 11 16 17 22 24 24 25 26 28 29 30 30 30 30 29
6 7 6 6 6 6 6 5 4 5 5 5 6 6 5 5 5 5 5 4 3 4 4 3 2 2 3 4 8 11 13 17 21 22 23 24 25 27 29 29 29 29 28
6 7 7 7 7 7 6 5 5 6 6 6 5 6 6 5 5 5 5 5 5 5 4 3 3 4 5 4 4 7 9 13 18 20 21 22 23 25 26 27 27 27 26
7 8 8 8 8 8 7 6 7 7 7 7 6 6 7 7 6 5 5 5 5 5 6 5 3 4 4 4 2 1 2 4 8 15 18 19 20 21 23 24 25 25 24
8 8 8 8 9 9 8 8 9 8 8 8 8 8 9 7 7 6 5 6 6 6 5 6 4 3 3 3 1 1 1 2 3 9 13 15 16 18 20 21 22 23 22
9 9 8 9 10 10 9 9 9 9 9 9 9 9 9 8 8 7 7 7 6 6 6 5 4 3 3 1 0 2 3 2 3 6 8 10 12 14 16 18 19 20 20
9 9 9 10 10 10 11 11 10 10 10 10 9 10 10 10 10 9 8 8 8 7 6 6 5 4 3 2 2 2 3 2 3 4 6 7 9 10 12 15 16 17 18
9 9 10 10 10 9 10 10 10 10 10 10 10 10 10 12 13 11 8 8 8 7 7 6 5 3 4 3 3 3 3 4 3 3 5 4 5 5 6 10 12 15 16
9 9 9 10 10 9 11 14 13 11 11 11 12 11 10 12 14 15 16 14 12 10 9 7 6 6 5 4 4 4 4 5 4 4 4 3 3 5 3 5 10 14 15
9 10 10 10 11 12 15 16 16 12 11 12 12 11 10 10 12 11 12 14 14 17 15 10 9 8 6 6 5 7 6 6 4 7 5 3 3 3 3 6 12 14 15
9 9 10 10 10 12 14 15 15 11 11 12 12 12 12 12 12 11 11 11 11 11 13 12 10 10 8 6 5 5 6 5 4 4 4 4 3 3 3 6 10 14 15
9 9 9 10 11 12 13 14 12 8 9 12 12 12 12 13 14 14 13 12 11 10 11 13 13 11 11 9 6 5 6 8 5 4 2 4 4 3 3 3 7 12 15
10 10 10 10 10 11 13 13 11 6 8 9 9 10 13 14 14 14 13 12 12 11 9 9 10 11 10 10 10 8 7 8 6 4 4 5 5 5 3 2 3 6 10
Wind_Direction
260 273 273 287 288 287 283 282 270 263 255 246 239 234 234 234 235 234 234 233 230 230 231 230 226 220 214 209 206 205 204 203 201 197 195 193 190 188 188 187 185 184 183
307 324 322 319 310 305 293 285 279 273 266 255 252 244 239 238 239 236 235 237 235 232 232 233 230 225 220 214 210 207 206 206 204 201 199 198 196 193 192 192 190 190 189
23 8 343 325 317 318 309 298 289 277 271 263 259 256 247 241 240 238 235 234 234 234 233 234 232 228 223 219 215 211 208 208 206 204 202 201 200 198 196 195 194 194 194
355 11 311 302 316 322 318 307 296 293 283 276 269 263 256 250 247 244 238 233 229 230 232 234 234 230 225 222 219 216 211 210 209 207 205 203 202 201 200 198 197 197 198
348 348 311 307 325 324 320 314 312 288 288 288 282 269 257 252 251 249 241 235 230 226 225 231 234 231 227 225 222 220 216 213 211 210 208 206 205 203 202 201 200 199 199
349 344 318 316 330 321 314 312 300 287 274 284 292 283 266 255 249 244 243 239 232 228 225 228 230 232 228 226 224 221 220 219 215 213 211 210 208 205 204 203 202 202 201
346 335 317 314 314 291 287 297 295 299 292 300 303 296 280 256 247 245 241 237 232 228 224 224 225 226 227 224 223 221 221 222 220 218 215 212 210 208 205 205 204 203 203
342 336 324 307 299 285 290 292 279 301 299 318 307 309 314 313 275 248 237 237 237 229 225 225 223 221 224 222 222 221 221 223 224 223 219 214 212 209 207 206 206 205 205
328 323 314 303 293 262 264 268 256 240 276 302 267 282 306 309 320 289 251 245 242 233 231 225 224 223 223 220 219 220 222 223 223 223 220 217 214 210 207 207 207 207 207
316 316 312 308 297 273 260 263 244 229 229 269 292 256 252 268 290 310 303 276 263 249 238 231 230 226 222 218 218 218 221 222 223 223 220 218 213 210 208 208 209 209 209
306 307 307 302 302 289 274 266 260 236 223 233 248 269 274 273 258 282 301 319 311 269 250 236 228 224 221 218 219 221 222 222 221 221 219 216 213 210 210 210 211 211 211
302 305 303 294 293 291 290 281 261 247 234 236 243 242 245 262 282 286 295 309 308 296 272 245 233 228 222 219 220 219 219 219 219 219 217 214 213 211 210 211 212 212 212
292 295 303 293 287 283 287 285 275 265 247 240 243 243 241 245 251 262 280 294 300 299 291 271 241 234 230 222 221 220 221 217 217 216 214 212 210 208 208 210 211 212 212
273 280 285 282 278 278 283 280 275 272 259 250 253 247 247 251 247 246 256 289 307 303 290 285 292 255 255 238 229 221 224 219 216 213 210 208 206 205 206 207 209 210 211
274 275 279 282 280 276 271 269 264 269 270 263 260 255 250 254 249 247 246 246 267 296 302 299 309 350 321 268 243 224 221 219 214 210 207 205 204 203 204 204 205 206 208
272 280 282 281 281 279 273 265 263 263 264 265 262 260 256 255 252 246 243 242 237 253 276 299 313 323 327 312 270 234 220 211 207 204 203 203 202 202 201 200 201 203 206
278 277 279 281 281 281 276 266 263 261 258 263 265 261 262 259 255 250 242 240 240 238 262 281 281 308 313 318 326 296 214 193 197 196 196 197 197 198 198 197 198 200 202
281 278 280 281 281 280 275 269 269 268 257 258 260 259 263 264 255 251 242 240 239 235 246 274 289 297 300 315 312 98 82 116 153 177 185 188 192 194 194 194 196 197 199
283 283 281 280 280 280 279 274 267 266 260 256 254 252 256 256 257 253 245 242 241 240 233 249 272 282 278 273 149 104 104 95 96 128 149 165 178 184 186 188 191 193 195
282 282 280 278 278 279 279 277 272 268 265 260 253 249 250 248 249 250 248 243 240 239 234 237 252 262 263 244 193 172 148 126 109 106 108 117 140 155 169 176 182 185 187
283 279 280 280 278 278 273 269 269 270 267 266 260 252 248 247 246 245 243 238 233 232 229 230 237 242 246 231 200 177 168 142 113 129 122 110 118 123 139 156 168 173 176
287 284 280 279 280 277 273 272 273 273 270 268 267 261 253 255 256 253 248 241 227 224 224 222 226 230 235 233 206 182 165 164 165 157 132 105 102 108 100 128 150 158 162
287 287 283 279 278 275 272 274 275 274 269 267 265 262 261 256 246 244 249 251 243 230 221 216 220 222 225 222 209 194 189 180 166 159 137 112 93 95 71 105 135 144 150
287 286 285 283 280 279 276 275 277 276 268 265 261 258 255 255 248 240 244 248 249 242 230 226 224 223 221 217 215 209 187 153 115 139 129 122 113 96 73 77 116 134 140
291 288 285 283 281 283 280 278 279 276 269 268 265 260 253 252 244 234 237 242 245 246 240 226 220 222 215 209 203 189 182 174 164 154 123 125 129 107 82 69 83 116 129
289 291 288 283 279 281 282 282 282 269 268 271 271 265 256 250 244 233 233 232 236 239 234 225 221 223 220 215 206 202 193 189 169 158 161 134 138 138 120 81 73 99 110
Height
1538 1537 1537 1536 1536 1536 1536 1535 1535 1535 1536 1536 1537 1538 1539 1540 1542 1543 1545 1547 1549 1552 1554 1556 1559 1561 1564 1566 1569 1572 1574 1577 1579 1582 1584 1587 1589 1591 1594 1596 1598 1600 1603
1535 1534 1534 1533 1533 1532 1532 1531 1530 1530 1531 1531 1531 1532 1532 1534 1535 1537 1538 1540 1543 1545 1548 1551 1553 1556 1559 1562 1565 1567 1570 1573 1576 1579 1581 1584 1587 1589 1592 1594 1597 1599 1601
1532 1531 1530 1530 1529 1528 1528 1527 1526 1526 1526 1526 1526 1526 1526 1527 1528 1529 1531 1533 1536 1538 1541 1544 1547 1550 1553 1557 1560 1563 1566 1569 1572 1575 1578 1581 1584 1586 1589 1592 1595 1597 1599
1529 1528 1527 1526 1526 1525 1524 1523 1522 1521 1521 1520 1520 1520 1520 1520 1521 1522 1524 1525 1528 1531 1534 1537 1541 1544 1547 1551 1554 1557 1561 1564 1567 1571 1574 1577 1580 1583 1586 1589 1592 1595 1597
1526 1525 1524 1523 1523 1522 1521 1520 1518 1517 1516 1516 1515 1514 1514 1513 1514 1515 1515 1517 1519 1522 1526 1530 1534 1537 1541 1544 1548 1551 1555 1558 1562 1566 1570 1573 1576 1580 1583 1586 1589 1592 1595
1523 1522 1521 1520 1520 1519 1518 1517 1516 1514 1513 1511 1510 1509 1508 1507 1507 1507 1508 1509 1511 1514 1518 1522 1526 1530 1533 1537 1541 1544 1548 1552 1556 1560 1564 1568 1571 1575 1579 1582 1585 1588 1591
1520 1519 1518 1517 1517 1516 1515 1514 1513 1512 1510 1508 1506 1504 1503 1502 1501 1500 1501 1501 1502 1505 1509 1513 1518 1522 1526 1530 1534 1538 1542 1545 1549 1554 1558 1562 1566 1570 1574 1577 1581 1584 1588
1517 1516 1515 1514 1513 1513 1512 1511 1510 1509 1508 1506 1504 1502 1500 1499 1497 1496 1496 1495 1496 1498 1501 1505 1510 1514 1518 1522 1526 1530 1534 1538 1542 1547 1551 1556 1560 1564 1568 1572 1576 1580 1583
1514 1513 1511 1510 1510 1509 1509 1508 1507 1506 1505 1505 1503 1502 1500 1497 1495 1493 1492 1491 1491 1492 1495 1498 1502 1506 1510 1514 1518 1523 1527 1531 1535 1540 1544 1549 1554 1558 1563 1567 1571 1575 1578
1511 1509 1508 1507 1506 1505 1505 1504 1504 1503 1503 1502 1501 1500 1500 1498 1496 1491 1490 1489 1488 1489 1490 1493 1496 1499 1503 1507 1511 1515 1520 1524 1529 1533 1537 1542 1546 1552 1556 1561 1565 1569 1573
1508 1506 1504 1503 1502 1501 1501 1501 1500 1500 1499 1499 1498 1497 1496 1495 1494 1492 1488 1486 1485 1485 1485 1487 1489 1492 1496 1500 1504 1508 1512 1517 1521 1526 1530 1534 1539 1545 1549 1554 1559 1563 1567
1504 1502 1501 1499 1498 1497 1497 1496 1496 1496 1495 1495 1494 1494 1493 1492 1491 1490 1487 1484 1482 1481 1481 1482 1484 1487 1490 1493 1497 1501 1505 1510 1514 1518 1523 1527 1532 1537 1542 1547 1552 1556 1561
1500 1498 1497 1495 1494 1493 1492 1492 1491 1491 1491 1491 1490 1490 1490 1489 1488 1487 1486 1483 1481 1479 1478 1480 1481 1482 1485 1488 1491 1495 1499 1503 1507 1511 1516 1520 1525 1530 1535 1540 1545 1550 1554
1496 1494 1493 1491 1490 1489 1488 1487 1486 1486 1486 1486 1486 1485 1485 1485 1485 1484 1483 1482 1479 1477 1477 1477 1478 1479 1481 1483 1486 1490 1493 1497 1501 1505 1509 1514 1519 1524 1529 1533 1539 1544 1548
1493 1491 1489 1487 1486 1484 1483 1482 1481 1481 1480 1480 1480 1480 1480 1480 1480 1480 1480 1480 1479 1477 1475 1475 1476 1476 1477 1479 1481 1484 1487 1491 1495 1499 1503 1508 1512 1517 1522 1527 1533 1537 1542
1489 1487 1485 1483 1481 1480 1478 1477 1476 1475 1475 1474 1474 1474 1474 1475 1475 1475 1476 1476 1476 1475 1473 1472 1472 1473 1474 1475 1477 1479 1482 1486 1489 1493 1498 1502 1507 1512 1517 1521 1527 1531 1536
1485 1482 1480 1478 1476 1474 1473 1472 1470 1469 1469 1468 1468 1468 1468 1469 1469 1470 1471 1471 1471 1471 1470 1468 1469 1469 1470 1472 1473 1475 1478 1481 1485 1489 1493 1498 1502 1506 1511 1516 1521 1526 1530
1480 1477 1475 1472 1471 1469 1468 1466 1465 1464 1463 1462 1462 1462 1462 1463 1463 1464 1465 1466 1467 1467 1467 1465 1465 1466 1467 1468 1470 1472 1474 1477 1481 1485 1489 1493 1497 1501 1506 1511 1515 1520 1525
1474 1472 1469 1467 1465 1463 1462 1460 1459 1458 1457 1456 1456 1456 1456 1456 1456 1457 1459 1460 1461 1462 1462 1462 1462 1462 1463 1465 1467 1469 1471 1474 1477 1481 1485 1488 1492 1497 1501 1506 1510 1515 1520
1469 1466 1464 1462 1460 1458 1456 1454 1453 1452 1451 1450 1450 1449 1449 1449 1450 1451 1452 1454 1455 1457 1458 1458 1458 1459 1460 1462 1464 1465 1468 1470 1473 1477 1481 1484 1488 1492 1496 1501 1505 1510 1515
1463 1461 1458 1456 1454 1452 1450 1449 1447 1446 1444 1444 1443 1443 1443 1443 1443 1444 1445 1447 1449 1451 1452 1453 1454 1455 1457 1458 1460 1462 1465 1467 1470 1473 1477 1480 1484 1488 1492 1496 1501 1505 1510
1458 1455 1453 1451 1449 1447 1445 1443 1442 1439 1438 1437 1436 1436 1436 1436 1436 1437 1439 1440 1442 1444 1446 1448 1449 1451 1452 1454 1456 1458 1461 1464 1467 1470 1474 1477 1481 1485 1488 1492 1497 1501 1506
1452 1450 1448 1446 1443 1441 1440 1438 1436 1434 1432 1430 1429 1428 1428 1428 1429 1430 1431 1433 1435 1437 1440 1442 1444 1446 1448 1450 1452 1454 1457 1460 1463 1466 1471 1474 1478 1482 1485 1489 1493 1497 1502
1448 1445 1443 1441 1438 1436 1434 1432 1430 1427 1425 1423 1422 1421 1420 1420 1421 1422 1423 1425 1427 1430 1433 1436 1438 1441 1444 1445 1447 1450 1453 1456 1459 1463 1467 1471 1476 1479 1483 1486 1490 1494 1498
1444 1441 1438 1435 1433 1430 1428 1426 1423 1420 1418 1416 1415 1414 1413 1412 1413 1414 1415 1417 1419 1422 1426 1429 1432 1435 1438 1441 1442 1445 1447 1451 1454 1458 1463 1468 1472 1476 1480 1484 1487 1491 1496
1439 1436 1433 1430 1428 1425 1422 1420 1417 1414 1411 1410 1408 1407 1406 1405 1405 1406 1407 1409 1411 1415 1419 1423 1426 1429 1432 1435 1437 1440 1443 1446 1449 1453 1458 1464 1468 1473 1478 1482 1485 1489 1493